Location: Acheville
(50.3840°N, 2.8827°E)
Time: 00:39:33
(UTC+00:00)

FENGYUN 1C DEB - Pass Details

Date: 09 February 2023
Orbit: 634 x 940 km, 98.3° (Epoch: 28 March)

Event Time Altitude Azimuth Distance (km) Brightness Sun altitude
Rises 05:27:57 0° 26° (NNE) 2,950 ? -16.8°
Reaches altitude 10° 05:30:35 10° 42° (NE) 2,048 ? -16.4°
Maximum altitude 05:34:01 22° 93° (E) 1,443 ? -15.8°
Drops below altitude 10° 05:37:33 10° 144° (SE) 2,111 ? -15.3°
Sets 05:40:18 0° 160° (SSE) 3,066 ? -14.8°
